H1 CPF 2 NER 2025 9 14 9 257 01 glonass129 H2 1106402 9129 37868 2025 9 14 0 0 0 2025 9 17 23 45 0 900 1 1 0 0 0 1 H9 10 0 60932 0.00000 0 -6784041.587 -20284147.901 13889496.751 10 0 60932 900.00000 0 -7003803.876 -21819213.205 11178577.585 10 0 60932 1800.00000 0 -7295104.418 -22989597.705 8250227.102 10 0 60932 2700.00000 0 -7603914.780 -23771376.413 5161292.393 10 0 60932 3600.00000 0 -7873659.979 -24153791.107 1971832.865 10 0 60932 4500.00000 0 -8047835.272 -24139600.540 -1256052.190 10 0 60932 5400.00000 0 -8072634.025 -23744877.592 -4459442.886 10 0 60932 6300.00000 0 -7899473.378 -22998260.519 -7575839.998 10 0 60932 7200.00000 0 -7487308.207 -21939689.005 -10544402.290 10 0 60932 8100.00000 0 -6804632.552 -20618678.231 -13307153.796 10 0 60932 9000.00000 0 -5831080.879 -19092204.245 -15810135.458 10 0 60932 9900.00000 0 -4558558.797 -17422291.048 -18004476.548 10 0 60932 10800.00000 0 -2991853.170 -15673402.658 -19847363.300 10 0 60932 11700.00000 0 -1148694.194 -13909751.827 -21302884.500 10 0 60932 12600.00000 0 940734.230 -12192640.443 -22342736.708 10 0 60932 13500.00000 0 3234815.651 -10577944.891 -22946775.077 10 0 60932 14400.00000 0 5682010.761 -9113852.918 -23103399.270 10 0 60932 15300.00000 0 8222791.758 -7838947.258 -22809767.620 10 0 60932 16200.00000 0 10791919.639 -6780715.886 -22071836.415 10 0 60932 17100.00000 0 13320968.368 -5954550.063 -20904224.848 10 0 60932 18000.00000 0 15740989.768 -5363270.259 -19329909.691 10 0 60932 18900.00000 0 17985207.513 -4997197.306 -17379757.153 10 0 60932 19800.00000 0 19991627.855 -4834762.997 -15091902.449 10 0 60932 20700.00000 0 21705458.678 -4843631.558 -12510990.528 10 0 60932 21600.00000 0 23081237.025 -4982282.063 -9687293.862 10 0 60932 22500.00000 0 24084577.860 -5201982.791 -6675725.416 10 0 60932 23400.00000 0 24693472.994 -5449072.466 -3534766.665 10 0 60932 24300.00000 0 24899088.141 -5667450.943 -325331.909 10 0 60932 25200.00000 0 24706027.088 -5801173.700 2890409.012 10 0 60932 26100.00000 0 24132054.147 -5797040.727 6050226.970 10 0 60932 27000.00000 0 23207288.378 -5607071.121 9093026.173 10 0 60932 27900.00000 0 21972904.715 -5190759.992 11960011.001 10 0 60932 28800.00000 0 20479397.107 -4517023.607 14595805.659 10 0 60932 29700.00000 0 18784476.439 -3565751.896 16949506.458 10 0 60932 30600.00000 0 16950690.493 -2328903.721 18975648.045 10 0 60932 31500.00000 0 15042864.161 -811099.092 20635066.525 10 0 60932 32400.00000 0 13125465.111 970316.951 21895644.406 10 0 60932 33300.00000 0 11260002.787 2985742.692 22732924.325 10 0 60932 34200.00000 0 9502567.164 5194302.664 23130580.628 10 0 60932 35100.00000 0 7901607.990 7545306.654 23080740.193 10 0 60932 36000.00000 0 6496045.487 9980126.977 22584146.159 10 0 60932 36900.00000 0 5313790.356 12434418.973 21650160.700 10 0 60932 37800.00000 0 4370734.406 14840595.355 20296605.471 10 0 60932 38700.00000 0 3670254.209 17130454.167 18549441.052 10 0 60932 39600.00000 0 3203249.328 19237852.958 16442289.456 10 0 60932 40500.00000 0 2948714.706 21101319.068 14015806.690 10 0 60932 41400.00000 0 2874824.551 22666487.541 11316915.297 10 0 60932 42300.00000 0 2940483.468 23888264.344 8397909.854 10 0 60932 43200.00000 0 3097280.497 24732623.162 5315451.284 10 0 60932 44100.00000 0 3291764.086 25177958.680 2129468.675 10 0 60932 45000.00000 0 3467941.685 25215937.417 -1098010.235 10 0 60932 45900.00000 0 3569897.245 24851808.253 -4304076.614 10 0 60932 46800.00000 0 3544414.153 24104157.674 -7426181.309 10 0 60932 47700.00000 0 3343490.214 23004118.665 -10403372.978 10 0 60932 48600.00000 0 2926635.469 21594065.838 -13177507.478 10 0 60932 49500.00000 0 2262852.679 19925851.757 -15694402.821 10 0 60932 50400.00000 0 1332213.887 18058659.403 -17904915.140 10 0 60932 51300.00000 0 126963.959 16056562.455 -19765912.886 10 0 60932 52200.00000 0 -1347897.492 13985897.544 -21241128.929 10 0 60932 53100.00000 0 -3074581.659 11912560.678 -22301873.047 10 0 60932 54000.00000 0 -5023025.731 9899342.859 -22927590.593 10 0 60932 54900.00000 0 -7151936.189 8003417.775 -23106256.669 10 0 60932 55800.00000 0 -9410315.968 6274087.420 -22834598.762 10 0 60932 56700.00000 0 -11739410.748 4750879.827 -22118144.564 10 0 60932 57600.00000 0 -14074991.954 3462077.575 -20971095.330 10 0 60932 58500.00000 0 -16349880.083 2423736.924 -19416028.694 10 0 60932 59400.00000 0 -18496602.166 1639236.251 -17483438.233 10 0 60932 60300.00000 0 -20450072.009 1099369.848 -15211120.186 10 0 60932 61200.00000 0 -22150181.296 782980.052 -12643420.622 10 0 60932 62100.00000 0 -23544193.916 658098.040 -9830358.858 10 0 60932 63000.00000 0 -24588844.554 683542.487 -6826645.112 10 0 60932 63900.00000 0 -25252055.316 810906.368 -3690612.222 10 0 60932 64800.00000 0 -25514200.485 986846.409 -483082.583 10 0 60932 65700.00000 0 -25368868.493 1155577.503 2733807.625 10 0 60932 66600.00000 0 -24823091.273 1261466.454 5897804.276 10 0 60932 67500.00000 0 -23897033.175 1251615.821 8947728.621 10 0 60932 68400.00000 0 -22623153.899 1078329.555 11824645.886 10 0 60932 69300.00000 0 -21044881.351 701357.510 14472987.713 10 0 60932 70200.00000 0 -19214850.127 89825.367 16841608.187 10 0 60932 71100.00000 0 -17192778.781 -776230.286 18884754.676 10 0 60932 72000.00000 0 -15043073.392 -1904785.664 20562936.369 10 0 60932 72900.00000 0 -12832255.724 -3291257.451 21843675.326 10 0 60932 73800.00000 0 -10626321.124 -4918459.086 22702126.904 10 0 60932 74700.00000 0 -8488133.964 -6757088.950 23121558.515 10 0 60932 75600.00000 0 -6474966.894 -8766732.161 23093678.013 10 0 60932 76500.00000 0 -4636284.361 -10897336.847 22618805.233 10 0 60932 77400.00000 0 -3011861.260 -13091106.352 21705882.708 10 0 60932 78300.00000 0 -1630314.145 -15284731.558 20372324.060 10 0 60932 79200.00000 0 -508106.008 -17411873.196 18643701.263 10 0 60932 80100.00000 0 350933.493 -19405792.986 16553274.687 10 0 60932 81000.00000 0 955551.451 -21202025.520 14141372.806 10 0 60932 81900.00000 0 1326480.032 -22740980.115 11454631.306 10 0 60932 82800.00000 0 1495333.288 -23970363.708 8545104.475 10 0 60932 83700.00000 0 1503037.844 -24847322.379 5469264.554 10 0 60932 84600.00000 0 1397862.919 -25340210.007 2286907.614 10 0 60932 85500.00000 0 1233132.766 -25429907.622 -940012.987 10 0 60933 0.00000 0 1064718.858 -25110635.640 -4148602.100 10 0 60933 900.00000 0 948419.177 -24390222.268 -7276264.193 10 0 60933 1800.00000 0 937337.800 -23289815.363 -10261940.516 10 0 60933 2700.00000 0 1079377.895 -21843047.955 -13047321.693 10 0 60933 3600.00000 0 1414957.315 -20094692.247 -15578005.668 10 0 60933 4500.00000 0 1975046.121 -18098858.752 -17804578.107 10 0 60933 5400.00000 0 2779611.673 -15916817.075 -19683592.088 10 0 60933 6300.00000 0 3836539.076 -13614531.149 -21178426.617 10 0 60933 7200.00000 0 5141074.142 -11260013.954 -22260006.312 10 0 60933 8100.00000 0 6675813.265 -8920614.148 -22907367.879 10 0 60933 9000.00000 0 8411240.932 -6660349.564 -23108062.526 10 0 60933 9900.00000 0 10306791.984 -4537399.981 -22858387.097 10 0 60933 10800.00000 0 12312393.337 -2601864.145 -22163440.454 10 0 60933 11700.00000 0 14370419.550 -893874.179 -21037005.291 10 0 60933 12600.00000 0 16417979.196 557855.206 -19501259.110 10 0 60933 13500.00000 0 18389435.376 1736984.154 -17586321.521 10 0 60933 14400.00000 0 20219054.164 2639974.480 -15329648.091 10 0 60933 15300.00000 0 21843669.807 3275971.041 -12775283.945 10 0 60933 16200.00000 0 23205255.335 3666145.950 -9972992.796 10 0 60933 17100.00000 0 24253291.593 3842536.329 -6977279.323 10 0 60933 18000.00000 0 24946836.646 3846427.310 -3846324.619 10 0 60933 18900.00000 0 25256210.368 3726350.659 -640855.830 10 0 60933 19800.00000 0 25164225.414 3535784.994 2577027.987 10 0 60933 20700.00000 0 24666914.784 3330655.499 5745051.176 10 0 60933 21600.00000 0 23773727.235 3166738.764 8801955.383 10 0 60933 22500.00000 0 22507183.717 3097081.836 11688669.820 10 0 60933 23400.00000 0 20902010.143 3169543.383 14349436.408 10 0 60933 24300.00000 0 19003783.083 3424559.486 16732869.495 10 0 60933 25200.00000 0 16867144.594 3893226.927 18792931.290 10 0 60933 26100.00000 0 14553659.719 4595783.660 20489805.802 10 0 60933 27000.00000 0 12129404.348 5540549.783 21790655.987 10 0 60933 27900.00000 0 9662381.836 6723373.585 22670250.865 10 0 60933 28800.00000 0 7219873.546 8127606.682 23111451.468 10 0 60933 29700.00000 0 4865831.096 9724610.869 23105546.757 10 0 60933 30600.00000 0 2658416.465 11474777.760 22652432.965 10 0 60933 31500.00000 0 647790.388 13329021.288 21760632.242 10 0 60933 32400.00000 0 -1125760.298 15230683.728 20447149.006 10 0 60933 33300.00000 0 -2633279.145 17117778.614 18737165.030 10 0 60933 34200.00000 0 -3858119.724 18925479.429 16663577.087 10 0 60933 35100.00000 0 -4796407.044 20588752.126 14266383.835 10 0 60933 36000.00000 0 -5456960.512 22045022.562 11591931.575 10 0 60933 36900.00000 0 -5860680.563 23236767.454 8692031.572 10 0 60933 37800.00000 0 -6039423.583 24113919.631 5622964.502 10 0 60933 38700.00000 0 -6034411.687 24635985.146 2444390.441 10 0 60933 39600.00000 0 -5894243.999 24773781.168 -781814.660 10 0 60933 40500.00000 0 -5672593.705 24510719.062 -3992772.921 10 0 60933 41400.00000 0 -5425689.220 23843576.057 -7125844.205 10 0 60933 42300.00000 0 -5209687.674 22782720.604 -10119865.714 10 0 60933 43200.00000 0 -5078054.114 21351780.010 -12916365.386 10 0 60933 44100.00000 0 -5079059.937 19586763.060 -15460723.377 10 0 60933 45000.00000 0 -5253509.135 17534673.980 -17703256.854 10 0 60933 45900.00000 0 -5632791.116 15251676.211 -19600205.173 10 0 60933 46800.00000 0 -6237344.641 12800883.875 -21114594.816 10 0 60933 47700.00000 0 -7075599.474 10249874.824 -22216966.280 10 0 60933 48600.00000 0 -8143441.467 7668030.893 -22885948.359 10 0 60933 49500.00000 0 -9424224.053 5123817.960 -23108668.796 10 0 60933 50400.00000 0 -10889325.489 2682120.580 -22880993.890 10 0 60933 51300.00000 0 -12499227.703 401742.981 -22207593.413 10 0 60933 52200.00000 0 -14205070.417 -1666819.478 -21101830.851 10 0 60933 53100.00000 0 -15950614.047 -3483246.339 -19585482.545 10 0 60933 54000.00000 0 -17674527.849 -5018819.404 -17688292.729 10 0 60933 54900.00000 0 -19312906.345 -6257354.257 -15447374.559 10 0 60933 55800.00000 0 -20801907.776 -7195599.907 -12906470.202 10 0 60933 56700.00000 0 -22080403.724 -7843093.108 -10115085.549 10 0 60933 57600.00000 0 -23092529.008 -8221476.771 -7127517.356 10 0 60933 58500.00000 0 -23790025.596 -8363314.214 -4001792.473 10 0 60933 59400.00000 0 -24134283.352 -8310451.812 -798540.208 10 0 60933 60300.00000 0 -24097993.420 -8112001.098 2420180.162 10 0 60933 61200.00000 0 -23666346.499 -7822026.692 5592074.187 10 0 60933 62100.00000 0 -22837727.288 -7497038.196 8655806.679 10 0 60933 63000.00000 0 -21623877.368 -7193391.722 11552173.611 10 0 60933 63900.00000 0 -20049520.611 -6964709.904 14225229.905 10 0 60933 64800.00000 0 -18151467.218 -6859428.058 16623352.757 10 0 60933 65700.00000 0 -15977233.573 -6918568.467 18700221.589 10 0 60933 66600.00000 0 -13583234.635 -7173835.220 20415697.291 10 0 60933 67500.00000 0 -11032622.675 -7646108.681 21736585.417 10 0 60933 68400.00000 0 -8392860.266 -8344402.331 22637269.950 10 0 60933 69300.00000 0 -5733126.083 -9265325.921 23100206.416 10 0 60933 70200.00000 0 -3121658.701 -10393078.353 23116265.340 10 0 60933 71100.00000 0 -623146.247 -11699972.225 22684919.429 10 0 60933 72000.00000 0 1703731.880 -13147470.331 21814270.178 10 0 60933 72900.00000 0 3808510.822 -14687693.459 20520912.197 10 0 60933 73800.00000 0 5650803.001 -16265339.205 18829636.160 10 0 60933 74700.00000 0 7201740.675 -17819934.238 16772974.034 10 0 60933 75600.00000 0 8444937.980 -19288327.947 14390593.146 10 0 60933 76500.00000 0 9376931.581 -20607324.628 11728548.580 10 0 60933 77400.00000 0 10007080.434 -21716344.502 8838406.429 10 0 60933 78300.00000 0 10356927.689 -22560001.651 5776253.364 10 0 60933 79200.00000 0 10459050.590 -23090489.438 2601610.773 10 0 60933 80100.00000 0 10355446.087 -23269671.121 -623725.680 10 0 60933 81000.00000 0 10095520.209 -23070785.197 -3836898.111 10 0 60933 81900.00000 0 9733766.656 -22479690.898 -6975225.427 10 0 60933 82800.00000 0 9327234.010 -21495598.615 -9977443.559 10 0 60933 83700.00000 0 8932890.567 -20131252.071 -12784920.781 10 0 60933 84600.00000 0 8605000.622 -18412552.663 -15342822.357 10 0 60933 85500.00000 0 8392625.731 -16377640.615 -17601199.668 10 0 60934 0.00000 0 8337359.224 -14075471.345 -19515980.644 10 0 60934 900.00000 0 8471391.941 -11563945.788 -21049841.708 10 0 60934 1800.00000 0 8815992.815 -8907677.038 -22172940.751 10 0 60934 2700.00000 0 9380469.470 -6175483.944 -22863499.908 10 0 60934 3600.00000 0 10161653.349 -3437720.729 -23108224.236 10 0 60934 4500.00000 0 11143930.864 -763554.180 -22902549.793 10 0 60934 5400.00000 0 12299818.565 1781697.026 -22250717.124 10 0 60934 6300.00000 0 13591057.008 4139049.733 -21165669.971 10 0 60934 7200.00000 0 14970175.927 6258067.249 -19668782.600 10 0 60934 8100.00000 0 16382463.452 8098702.897 -17789422.605 10 0 60934 9000.00000 0 17768255.303 9632701.283 -15564359.131 10 0 60934 9900.00000 0 19065446.682 10844501.362 -13037029.449 10 0 60934 10800.00000 0 20212120.657 11731606.608 -10256679.347 10 0 60934 11700.00000 0 21149182.422 12304410.095 -7277395.058 10 0 60934 12600.00000 0 21822889.001 12585485.053 -4157046.312 10 0 60934 13500.00000 0 22187168.882 12608373.671 -956161.488 10 0 60934 14400.00000 0 22205635.232 12415927.561 2263243.149 10 0 60934 15300.00000 0 21853209.472 12058271.560 5438857.592 10 0 60934 16200.00000 0 21117288.466 11590477.676 8509272.994 10 0 60934 17100.00000 0 19998407.614 11070047.524 11415155.099 10 0 60934 18000.00000 0 18510373.025 10554308.907 14100374.605 10 0 60934 18900.00000 0 16679857.709 10097835.240 16513074.064 10 0 60934 19800.00000 0 14545478.559 9749995.140 18606652.308 10 0 60934 20700.00000 0 12156391.867 9552733.776 20340649.001 10 0 60934 21600.00000 0 9570464.537 9538677.873 21681513.854 10 0 60934 22500.00000 0 6852095.075 9729642.940 22603247.036 10 0 60934 23400.00000 0 4069772.579 10135604.877 23087899.412 10 0 60934 24300.00000 0 1293472.412 10754179.294 23125923.546 10 0 60934 25200.00000 0 -1408006.023 11570631.288 22716368.660 10 0 60934 26100.00000 0 -3969651.368 12558416.924 21866915.188 10 0 60934 27000.00000 0 -6332695.920 13680235.896 20593747.075 10 0 60934 27900.00000 0 -8446814.237 14889553.829 18921262.589 10 0 60934 28800.00000 0 -10271974.091 16132533.008 16881627.176 10 0 60934 29700.00000 0 -11779862.822 17350292.937 14514174.766 10 0 60934 30600.00000 0 -12954829.078 18481407.744 11864666.876 10 0 60934 31500.00000 0 -13794299.614 19464536.619 8984421.873 10 0 60934 32400.00000 0 -14308652.459 20241076.912 5929329.732 10 0 60934 33300.00000 0 -14520550.624 20757727.551 2758770.374 10 0 60934 34200.00000 0 -14463763.344 20968853.173 -465543.666 10 0 60934 35100.00000 0 -14181524.081 20838547.085 -3680777.344 10 0 60934 36000.00000 0 -13724494.653 20342303.279 -6824211.449 10 0 60934 36900.00000 0 -13148422.311 19468224.099 -9834483.410 10 0 60934 37800.00000 0 -12511590.238 18217709.853 -12652804.482 10 0 60934 38700.00000 0 -11872171.274 16605598.931 -15224127.495 10 0 60934 39600.00000 0 -11285599.094 14659750.759 -17498240.272 10 0 60934 40500.00000 0 -10802070.403 12420088.063 -19430761.578 10 0 60934 41400.00000 0 -10464285.946 9937138.337 -20984018.724 10 0 60934 42300.00000 0 -10305527.629 7270136.018 -22127788.716 10 0 60934 43200.00000 0 -10348154.182 4484765.696 -22839888.044 10 0 60934 44100.00000 0 -10602579.468 1650641.798 -23106599.758 10 0 60934 45000.00000 0 -11066776.392 -1161368.807 -22922930.009 10 0 60934 45900.00000 0 -11726326.626 -3881868.662 -22292690.077 10 0 60934 46800.00000 0 -12555012.792 -6445582.077 -21228403.529 10 0 60934 47700.00000 0 -13515926.596 -8793827.524 -19751041.742 10 0 60934 48600.00000 0 -14563044.528 -10876707.831 -17889594.480 10 0 60934 49500.00000 0 -15643203.117 -12654928.407 -15680485.347 10 0 60934 50400.00000 0 -16698389.121 -14101169.788 -13166844.896 10 0 60934 51300.00000 0 -17668247.167 -15200959.912 -10397656.766 10 0 60934 52200.00000 0 -18492698.625 -15953012.717 -7426794.451 10 0 60934 53100.00000 0 -19114561.363 -16369022.082 -4311968.207 10 0 60934 54000.00000 0 -19482060.453 -16472922.807 -1113603.024 10 0 60934 54900.00000 0 -19551124.980 -16299652.432 2106330.394 10 0 60934 55800.00000 0 -19287375.418 -15893468.058 5285509.128 10 0 60934 56700.00000 0 -18667719.276 -15305890.489 8362453.388 10 0 60934 57600.00000 0 -17681489.189 -14593362.922 11277701.441 10 0 60934 58500.00000 0 -16331076.684 -13814722.656 13974942.510 10 0 60934 59400.00000 0 -14632035.650 -13028591.526 16402087.162 10 0 60934 60300.00000 0 -12612651.183 -12290793.568 18512256.135 10 0 60934 61200.00000 0 -10312991.233 -11651906.920 20264670.117 10 0 60934 62100.00000 0 -7783479.315 -11155051.143 21625424.911 10 0 60934 63000.00000 0 -5083045.800 -10834001.413 22568138.444 10 0 60934 63900.00000 0 -2276932.309 -10711707.591 23074458.124 10 0 60934 64800.00000 0 565762.361 -10799279.794 23134419.359 10 0 60934 65700.00000 0 3374695.761 -11095483.170 22746648.336 10 0 60934 66600.00000 0 6080949.025 -11586763.997 21918404.540 10 0 60934 67500.00000 0 8619639.524 -12247807.537 20665461.047 10 0 60934 68400.00000 0 10932372.313 -13042606.375 19011823.200 10 0 60934 69300.00000 0 12969429.596 -13925996.699 16989289.098 10 0 60934 70200.00000 0 14691607.540 -14845600.332 14636858.109 10 0 60934 71100.00000 0 16071623.592 -15744092.923 11999996.649 10 0 60934 72000.00000 0 17095034.621 -16561704.248 9129773.446 10 0 60934 72900.00000 0 17760626.285 -17238846.016 6081879.461 10 0 60934 73800.00000 0 18080255.857 -17718756.128 2915550.467 10 0 60934 74700.00000 0 18078153.882 -17950046.703 -307587.102 10 0 60934 75600.00000 0 17789713.150 -17889046.360 -3524724.246 10 0 60934 76500.00000 0 17259815.668 -17501835.275 -6673106.948 10 0 60934 77400.00000 0 16540768.536 -16765884.171 -9691277.464 10 0 60934 78300.00000 0 15689936.890 -15671225.081 -12520293.301 10 0 60934 79200.00000 0 14767175.500 -14221101.747 -15104897.983 10 0 60934 80100.00000 0 13832169.584 -12432069.968 -17394618.695 10 0 60934 81000.00000 0 12941799.436 -10333542.047 -19344767.539 10 0 60934 81900.00000 0 12147642.342 -7966793.575 -20917325.388 10 0 60934 82800.00000 0 11493719.159 -5383474.051 -22081690.104 10 0 60934 83700.00000 0 11014582.006 -2643684.139 -22815274.036 10 0 60934 84600.00000 0 10733824.418 186299.168 -23103939.251 10 0 60934 85500.00000 0 10663076.792 3036553.389 -22942262.542 10 0 60935 0.00000 0 10801528.671 5836190.538 -22333626.073 10 0 60935 900.00000 0 11135996.845 8516075.277 -21290132.754 10 0 60935 1800.00000 0 11641534.337 11011463.943 -19832350.312 10 0 60935 2700.00000 0 12282552.900 13264459.795 -17988889.499 10 0 60935 3600.00000 0 13014409.501 15226179.410 -15795826.814 10 0 60935 4500.00000 0 13785388.082 16858543.034 -13295984.172 10 0 60935 5400.00000 0 14538991.466 18135616.182 -10538080.794 10 0 60935 6300.00000 0 15216445.704 19044449.161 -7575774.839 10 0 60935 7200.00000 0 15759310.643 19585382.347 -4466614.209 10 0 60935 8100.00000 0 16112086.638 19771807.474 -1270917.415 10 0 60935 9000.00000 0 16224707.962 19629397.747 1949393.636 10 0 60935 9900.00000 0 16054818.709 19194841.501 5131986.376 10 0 60935 10800.00000 0 15569736.439 18514134.406 8215313.276 10 0 60935 11700.00000 0 14748022.134 17640503.048 11139788.186 10 0 60935 12600.00000 0 13580591.495 16632047.503 13848921.690 10 0 60935 13500.00000 0 12071321.646 15549201.526 16290394.954 10 0 60935 14400.00000 0 10237128.042 14452116.009 18417052.920 10 0 60935 15300.00000 0 8107507.923 13398074.049 20187799.284 10 0 60935 16200.00000 0 5723568.331 12439044.332 21568377.618 10 0 60935 17100.00000 0 3136577.414 11619473.634 22532024.937 10 0 60935 18000.00000 0 406097.040 10974409.436 23059986.161 10 0 60935 18900.00000 0 -2402228.426 10528030.196 23141880.123 10 0 60935 19800.00000 0 -5219138.294 10292644.333 22775910.128 10 0 60935 20700.00000 0 -7974377.231 10268200.056 21968914.415 10 0 60935 21600.00000 0 -10599366.299 10442327.449 20736254.420 10 0 60935 22500.00000 0 -13029814.632 10790912.528 19101541.342 10 0 60935 23400.00000 0 -15208164.706 11279181.055 17096204.261 10 0 60935 24300.00000 0 -17085770.232 11863248.656 14758905.943 10 0 60935 25200.00000 0 -18624715.894 12492074.012 12134815.357 10 0 60935 26100.00000 0 -19799202.262 13109734.463 9274749.025 10 0 60935 27000.00000 0 -20596436.707 13657929.042 6234196.199 10 0 60935 27900.00000 0 -21016991.490 14078603.486 3072245.744 10 0 60935 28800.00000 0 -21074612.401 14316585.618 -149564.799 10 0 60935 29700.00000 0 -20795484.697 14322118.158 -3368455.252 10 0 60935 30600.00000 0 -20216986.389 14053179.608 -6521639.550 10 0 60935 31500.00000 0 -19385981.200 13477492.285 -9547567.494 10 0 60935 32400.00000 0 -18356723.699 12574129.646 -12387145.474 10 0 60935 33300.00000 0 -17188466.138 11334652.055 -14984910.208 10 0 60935 34200.00000 0 -15942869.732 9763720.440 -17290130.546 10 0 60935 35100.00000 0 -14681331.615 7879159.911 -19257813.961 10 0 60935 36000.00000 0 -13462342.357 5711469.200 -20849596.622 10 0 60935 36900.00000 0 -12338987.415 3302795.866 -22034498.620 10 0 60935 37800.00000 0 -11356699.272 705420.172 -22789529.159 10 0 60935 38700.00000 0 -10551355.885 -2020188.390 -23100129.946 10 0 60935 39600.00000 0 -9947805.621 -4807659.799 -22960448.640 10 0 60935 40500.00000 0 -9558880.195 -7587260.871 -22373437.985 10 0 60935 41400.00000 0 -9384935.850 -10288574.597 -21350779.921 10 0 60935 42300.00000 0 -9413940.196 -12843209.093 -19912637.568 10 0 60935 43200.00000 0 -9622098.819 -15187423.205 -18087241.436 10 0 60935 44100.00000 0 -9974992.825 -17264559.806 -15910319.415 10 0 60935 45000.00000 0 -10429177.030 -19027186.420 -13424383.041 10 0 60935 45900.00000 0 -10934169.308 -20438855.607 -10677885.207 10 0 60935 46800.00000 0 -11434745.516 -21475413.847 -7724266.709 10 0 60935 47700.00000 0 -11873442.029 -22125806.823 -4620910.990 10 0 60935 48600.00000 0 -12193159.736 -22392350.207 -1428027.914 10 0 60935 49500.00000 0 -12339759.631 -22290457.340 1792511.625 10 0 60935 50400.00000 0 -12264541.032 -21847837.723 4978367.702 10 0 60935 51300.00000 0 -11926498.835 -21103201.926 8067927.406 10 0 60935 52200.00000 0 -11294265.762 -20104528.646 11001482.596 10 0 60935 53100.00000 0 -10347658.969 -18906967.292 13722367.684 10 0 60935 54000.00000 0 -9078766.855 -17570464.006 16178036.887 10 0 60935 54900.00000 0 -7492530.878 -16157209.889 18321061.722 10 0 60935 55800.00000 0 -5606797.907 -14729017.036 20110031.123 10 0 60935 56700.00000 0 -3451840.082 -13344730.542 21510338.434 10 0 60935 57600.00000 0 -1069360.732 -12057782.875 22494841.508 10 0 60935 58500.00000 0 1488974.360 -10913991.112 23044384.214 10 0 60935 59400.00000 0 4163421.878 -9949687.572 23148169.939 10 0 60935 60300.00000 0 6888386.721 -9190260.957 22803979.921 10 0 60935 61200.00000 0 9594899.162 -8649168.567 22018231.657 10 0 60935 62100.00000 0 12213243.423 -8327461.112 20805875.151 10 0 60935 63000.00000 0 14675630.988 -8213840.878 19190127.359 10 0 60935 63900.00000 0 16918809.342 -8285252.180 17202047.940 10 0 60935 64800.00000 0 18886498.688 -8507980.990 14879962.308 10 0 60935 65700.00000 0 20531555.393 -8839219.284 12268740.862 10 0 60935 66600.00000 0 21817771.316 -9229029.816 9418946.373 10 0 60935 67500.00000 0 22721232.643 -9622629.613 6385864.402 10 0 60935 68400.00000 0 23231179.705 -9962896.245 3228434.483 10 0 60935 69300.00000 0 23350329.891 -10192990.621 8102.457 10 0 60935 70200.00000 0 23094648.398 -10258984.211 -3212383.450 10 0 60935 71100.00000 0 22492575.129 -10112377.623 -6370208.453 10 0 60935 72000.00000 0 21583739.484 -9712401.373 -9403733.330 10 0 60935 72900.00000 0 20417217.141 -9027998.631 -12253716.749 10 0 60935 73800.00000 0 19049402.910 -8039403.080 -14864491.915 10 0 60935 74700.00000 0 17541590.603 -6739242.393 -17185072.451 10 0 60935 75600.00000 0 15957363.636 -5133118.345 -19170164.072 10 0 60935 76500.00000 0 14359908.254 -3239637.249 -20781060.817 10 0 60935 77400.00000 0 12809364.443 -1089888.302 -21986407.261 10 0 60935 78300.00000 0 11360327.609 1273608.744 -22762811.340 10 0 60935 79200.00000 0 10059607.214 3798442.338 -23095295.856 10 0 60935 80100.00000 0 8944336.961 6424269.255 -22977580.347 10 0 60935 81000.00000 0 8040515.597 9085113.273 -22412188.751 10 0 60935 81900.00000 0 7362038.459 11711905.465 -21410381.993 10 0 60935 82800.00000 0 6910258.644 14235159.266 -19991918.202 10 0 60935 83700.00000 0 6674093.889 16587668.283 -18184646.780 10 0 60935 84600.00000 0 6630671.955 18707114.369 -16023945.676 10 0 60935 85500.00000 0 6746484.616 20538477.728 -13552014.290 99